Tracking 33744 objects as of 12-Apr-2026
HD Live streaming from Space Station
objects crossing your sky now

LES 9

Track LES 9 now!
LES 9 is classified as:


NORAD ID: 8747
Int'l Code: 1976-023B
Perigee: 35,693.7 km
Apogee: 35,892.1 km
Inclination: 22.2 °
Period: 1,436.1 minutes
Semi major axis: 42163 km
RCS: 3.1777 m2 (large)
Launch date: March 15, 1976
Source: United States (US)
Launch site: AIR FORCE EASTERN TEST RANGE (AFETR)

Original purpose was "Air Force sponsored program in space communications"; nuclear-powered; circuits jam-resistant to operate in hostile environment.
Your satellite tracking list
Your tracking list is empty




NASA's NSSDC Master Catalog

Two Line Element Set (TLE):
1 08747U 76023B   26101.35760968 -.00000110  00000-0  00000-0 0  9991
2 08747  22.2365  37.8943 0023521 181.5767   5.7445  1.00274864129009
Source of the keplerian elements: AFSPC